Overview Statistics Trail Chart Weather Telemetry Raw packets
 

This is the latest recevied weather packets stored in our database for station/object KC1IUC-15. If no packets are shown the sender has not sent any weather packets the latest 10 day(s).

<< 1 2 3 4 >>
Time Temp. Humidity Pressure Rain* Wind** Luminosity Snow
1788618003 23.33° C 60% 1008.9 hPa 0 mm - 471 W/m² -
1788617703 22.78° C 62% 1009.3 hPa 0 mm - 462 W/m² -
1788617403 22.78° C 60% 1008.9 hPa 0 mm - 452 W/m² -
1788617103 22.78° C 62% 1008.9 hPa 0 mm - 439 W/m² -
1788616803 22.22° C 63% 1009.3 hPa 0 mm - 425 W/m² -
1788616503 22.78° C 62% 1008.9 hPa 0 mm - 389 W/m² -
1788616203 23.33° C 62% 1008.9 hPa 0 mm - 112 W/m² -
1788615903 22.22° C 66% 1009.3 hPa 0 mm - 300 W/m² -
1788615603 22.22° C 65% 1009.3 hPa 0 mm - 174 W/m² -
1788615303 22.22° C 67% 1009.3 hPa 0 mm - 103 W/m² -
1788615003 21.67° C 70% 1009.6 hPa 0 mm - 212 W/m² -
1788614703 21.67° C 70% 1009.6 hPa 0 mm - 115 W/m² -
1788614403 21.67° C 73% 1009.3 hPa 0 mm - 97 W/m² -
1788614103 21.11° C 72% 1009.3 hPa 0 mm - 233 W/m² -
1788613803 21.11° C 73% 1009.3 hPa 0 mm - 142 W/m² -
1788613503 21.11° C 71% 1009.6 hPa 0 mm - 38 W/m² -
1788613203 21.11° C 72% 1009.6 hPa 0 mm - 40 W/m² -
1788612903 21.11° C 72% 1009.6 hPa 0 mm - 37 W/m² -
1788612603 21.11° C 73% 1009.6 hPa 0 mm - 35 W/m² -
1788612303 20.56° C 75% 1009.6 hPa 0 mm - 39 W/m² -
1788612003 20° C 79% 1009.6 hPa 0 mm - 79 W/m² -
1788611703 20° C 82% 1009.6 hPa 0 mm - 47 W/m² -
1788611403 19.44° C 84% 1009.6 hPa 0 mm - 38 W/m² -
1788611103 18.89° C 87% 1009.9 hPa 0 mm - 37 W/m² -
1788610823 18.33° C 89% 1009.6 hPa 0 mm - 34 W/m² -

* Rain latest hour (hover to see other rain measurements)
** Current wind speed in m/s (hover to see current wind gust speed)